Terminal Aerodrome Forecast
Issued by NWS Aberdeen, SD

Home | Current Version | Previous Version | Text Only | Print | Product List | Glossary On
Versions: 1 2 3 4 5 6 7 8 9 10 11 12 13 14 15 16 17 18 19 20 21 22 23 24 25 26 27 28 29 30 31 32 33 34 35 36 37 38 39 40 41 42 43 44 45 46 47 48 49 50
000
FTUS43 KABR 271200 AAA
TAFABR
TAF AMD
KABR 271248Z 2713/2812 VRB06KT P6SM FEW020 SCT060
      TEMPO 2713/2715 BKN020 BKN250
     FM271500 12006KT P6SM BKN025 BKN120
     FM272100 14006KT P6SM SCT035 BKN120=

USA.gov is the U.S. government's official web portal to all federal, state and local government web resources and services.